Weather History for Barksdale AFB, LA

Change the Weather History Date:

Friday, March 15, 2013

  Actual Average Record
Temperature  
Mean Temperature 65 °F -  
Max Temperature 80 °F 64 °F 82 °F (2012)
Min Temperature 51 °F 45 °F 33 °F (1999)
Growing Degree Days 15 (Base 50)    
Moisture  
Dew Point 44 °F    
Average Humidity 47    
Maximum Humidity 74    
Minimum Humidity 26    
Precipitation  
Precipitation 0.00 in - - ()
Sea Level Pressure  
Sea Level Pressure 30.12 in    
Wind  
Wind Speed 11 mph (SSW)    
Max Wind Speed 20 mph    
Max Gust Speed 23 mph    
Visibility 10 miles    
Events      
Averages and records for this station are not official NWS values.
T = Trace of Precipitation, MM = Missing Value Source: NWS Daily Summary

Daily Weather History Graph

Daily Weather History Graph

Search for Another Location

Airport:

Trip Planner

Search our weather history database for the weather conditions in past years. The results will help you decide how hot, cold, wet, or windy it might be!

Date:

Astronomy

Mar. 15, 2013 Rise Set
Actual Time 7:24 AM CDT 7:22 PM CDT
Civil Twilight 7:00 AM CDT 7:47 PM CDT
Nautical Twilight 6:31 AM CDT 8:15 PM CDT
Astronomical Twilight 6:02 AM CDT 8:44 PM CDT
Moon 9:29 AM CDT (3/15) 11:21 PM CDT (3/15)
Length of Visible Light 12h 47m
Length of Day
11h 58m
Waxing Crescent, 15% of the Moon is Illuminated
Mar 15
Waxing Crescent
Mar 19
First Quarter
Mar 27
Full
Apr 2
Last Quarter
Apr 10
New

Hourly Weather History & Observations

Time (CDT) Temp. Dew Point Humidity Pressure Visibility Wind Dir Wind Speed Gust Speed Precip Events Conditions
12:58 AM 59.2 °F 41.9 °F 53% 30.22 in 10.0 mi SSW 12.7 mph - N/A   Clear
1:58 AM 58.3 °F 41.4 °F 53% 30.23 in 10.0 mi SSW 10.4 mph - N/A   Clear
2:58 AM 56.1 °F 41.5 °F 58% 30.22 in 10.0 mi SSW 6.9 mph - N/A   Clear
3:58 AM 54.1 °F 41.7 °F 63% 30.21 in 10.0 mi SSW 5.8 mph - N/A   Clear
4:58 AM 53.2 °F 42.3 °F 66% 30.20 in 10.0 mi SSW 8.1 mph - N/A   Clear
5:58 AM 52.7 °F 42.8 °F 69% 30.20 in 10.0 mi SSW 8.1 mph - N/A   Clear
6:58 AM 51.4 °F 43.2 °F 73% 30.21 in 10.0 mi SSW 5.8 mph - N/A   Clear
7:58 AM 51.8 °F 43.9 °F 74% 30.21 in 10.0 mi SSW 5.8 mph - N/A   Clear
8:58 AM 56.1 °F 45.3 °F 67% 30.21 in 10.0 mi SW 9.2 mph - N/A   Clear
9:58 AM 61.7 °F 48.0 °F 61% 30.22 in 10.0 mi SW 8.1 mph - N/A   Clear
10:58 AM 66.4 °F 49.3 °F 54% 30.19 in 10.0 mi SSW 11.5 mph - N/A   Clear
11:45 AM 69.8 °F 46.4 °F 43% 30.16 in 10.0 mi SSW 16.1 mph 23.0 mph N/A   Clear
11:58 AM 71.1 °F 45.9 °F 40% 30.16 in 10.0 mi SW 13.8 mph 23.0 mph N/A   Clear
12:58 PM 75.6 °F 43.5 °F 32% 30.14 in 10.0 mi SSW 18.4 mph - N/A   Clear
1:58 PM 77.2 °F 43.2 °F 30% 30.11 in 10.0 mi SW 11.5 mph - N/A   Clear
2:33 PM 77.0 °F 42.8 °F 29% 30.07 in 9.0 mi SSW 12.7 mph 18.4 mph N/A   Clear
2:58 PM 78.6 °F 44.1 °F 29% 30.07 in 10.0 mi SSW 11.5 mph - N/A   Clear
3:47 PM 78.8 °F 44.6 °F 30% 30.04 in 10.0 mi SSW 13.8 mph 20.7 mph N/A   Clear
3:58 PM 79.3 °F 44.6 °F 29% 30.05 in 10.0 mi SW 10.4 mph 19.6 mph N/A   Clear
4:58 PM 79.5 °F 43.7 °F 28% 30.03 in 10.0 mi SSW 11.5 mph - N/A   Clear
5:58 PM 78.8 °F 41.5 °F 26% 30.01 in 10.0 mi SSW 17.3 mph - N/A   Clear
6:58 PM 75.7 °F 43.3 °F 31% 30.00 in 10.0 mi SSW 10.4 mph - N/A   Clear
7:58 PM 71.1 °F 43.2 °F 37% 30.00 in 10.0 mi SSW 6.9 mph - N/A   Clear
8:58 PM 67.6 °F 44.1 °F 43% 29.99 in 10.0 mi South 9.2 mph - N/A   Clear
9:58 PM 68.9 °F 45.7 °F 43% 29.99 in 10.0 mi South 17.3 mph - N/A   Clear
10:58 PM 66.9 °F 48.2 °F 51% 29.99 in 10.0 mi South 19.6 mph - N/A   Clear
11:58 PM 64.9 °F 48.4 °F 55% 29.99 in 10.0 mi South 13.8 mph - N/A   Clear